Theta_e
292 292 292 292 292 292 293 293 293 294 294 294 294 294 294 295 294 294 294 294 294 294 294 294 294 294 294 293 293 292 292 291 290 289 289 288 288 288 288 287 287 287 287 287 287 287 287 287 287 287 287 287 287 286 286 286 286 285 286 286 285 285 284 284 285 285 281 281 281 281 281 281 281 281 280 280 279 279 279 279 279 279 279 279 280
292 292 292 292 291 291 292 292 292 293 293 293 293 294 294 294 294 294 294 293 293 293 293 293 293 293 293 293 293 292 291 291 290 289 289 288 288 287 287 287 287 287 286 286 286 286 286 286 286 286 286 286 286 286 286 285 285 285 285 285 285 284 284 283 284 284 282 280 280 281 281 281 281 280 280 280 280 280 280 280 279 279 279 280 281
291 291 292 291 291 291 291 291 291 291 292 292 293 293 293 293 294 293 293 293 293 293 293 293 293 292 292 292 292 291 291 290 290 290 289 288 288 287 287 286 286 286 286 286 286 286 285 285 285 285 285 285 285 285 285 285 285 285 285 285 284 284 283 283 283 283 282 280 279 279 280 280 280 280 280 280 280 280 281 281 280 280 280 280 281
290 290 291 291 291 291 291 291 290 291 291 291 292 292 292 293 293 293 292 292 292 292 292 292 292 292 291 291 291 291 290 290 290 289 289 288 287 287 287 286 286 286 285 285 286 285 285 285 285 285 285 284 284 284 284 284 284 284 284 284 284 283 283 283 283 282 282 280 279 278 279 279 280 280 280 281 281 281 281 281 281 280 280 281 281
289 289 290 290 290 291 291 291 290 290 290 290 290 291 291 292 292 292 292 292 292 291 291 291 291 291 291 291 291 291 290 290 290 289 289 288 287 287 287 286 285 285 285 285 285 285 285 285 285 285 284 284 284 284 284 283 283 283 283 283 282 282 282 282 281 281 281 280 279 278 278 279 279 280 280 280 280 281 281 281 281 281 281 281 281
289 289 289 290 290 290 290 290 290 290 290 289 290 290 290 290 291 291 291 291 291 291 290 290 290 290 291 290 290 290 290 290 289 289 289 288 288 287 286 286 285 285 285 285 285 285 285 285 285 285 284 284 284 284 283 283 283 283 282 282 282 281 281 280 280 280 280 279 278 277 277 278 278 279 279 279 279 279 279 280 280 280 280 281 281
289 289 289 289 289 289 289 289 290 290 290 289 289 289 289 289 290 290 290 291 291 290 290 290 290 290 290 290 290 290 289 289 289 289 288 288 287 287 286 286 285 285 285 284 284 284 284 285 284 284 285 285 285 284 284 283 283 282 282 282 281 280 280 279 279 279 278 278 277 277 276 276 277 277 278 278 277 277 277 278 279 279 278 279 280
288 288 289 289 289 289 289 289 289 290 290 290 290 289 289 289 289 289 290 290 290 290 290 290 290 289 289 289 289 289 289 289 289 288 288 287 287 287 286 286 285 285 284 284 284 284 284 284 284 284 285 285 285 285 285 284 283 282 281 281 281 280 279 278 277 277 277 276 276 276 276 276 277 277 277 277 277 277 277 277 278 278 277 277 278
288 288 288 288 288 288 288 288 288 289 290 290 291 290 289 289 289 288 289 289 289 290 290 290 289 289 288 288 288 289 288 288 288 288 288 287 287 286 286 286 285 284 284 284 283 283 283 283 283 283 284 285 285 285 285 285 285 284 282 281 280 279 278 278 277 276 275 275 276 276 276 277 277 277 277 277 278 278 278 277 277 277 277 277 277
287 287 288 288 288 288 288 288 288 288 288 290 290 291 290 289 289 288 288 288 289 289 289 289 289 288 288 288 288 288 288 288 288 288 288 287 287 286 286 285 285 284 284 283 283 283 283 283 283 283 283 283 283 283 284 284 285 285 285 283 281 280 278 276 276 276 275 275 276 277 277 277 277 277 278 278 278 278 277 277 277 277 277 277 277
287 287 287 287 287 287 287 287 287 287 287 288 289 290 291 291 290 289 288 288 288 288 288 288 288 288 288 288 287 287 287 288 288 287 287 287 287 286 286 285 285 284 284 283 283 282 282 282 282 282 282 281 282 282 282 282 283 283 284 284 283 282 280 278 276 275 275 275 276 277 277 277 278 278 278 278 278 277 277 277 277 277 277 278 278
286 286 286 287 287 286 287 286 286 286 286 287 288 289 290 291 291 290 289 288 288 287 288 288 288 288 288 287 287 287 287 287 287 287 287 287 287 286 286 285 285 284 283 283 283 282 282 281 281 281 281 281 281 281 280 281 281 281 281 281 281 281 282 281 280 278 277 276 276 276 277 277 278 278 278 278 277 277 277 277 277 277 277 278 278
285 285 286 286 286 286 286 286 286 286 286 287 287 288 289 289 290 290 289 288 288 287 287 287 287 287 287 287 287 287 287 287 287 287 287 286 286 286 286 285 284 284 283 283 282 282 281 281 281 281 281 281 281 280 280 280 280 280 280 279 279 279 280 281 281 281 280 278 277 277 277 277 278 278 278 277 277 277 277 277 277 277 278 278 278
284 285 285 285 285 285 285 285 285 285 286 287 287 287 287 288 289 289 289 288 288 287 287 287 287 287 286 286 286 286 286 287 286 286 286 286 286 286 286 285 284 284 283 283 282 282 281 281 280 280 280 280 280 280 280 279 279 279 278 278 278 278 278 278 279 280 280 279 278 278 277 278 278 278 278 277 276 277 277 277 278 278 277 277 276
283 284 284 284 284 284 284 284 284 285 285 286 287 287 287 287 287 288 288 288 287 287 287 286 286 286 286 286 286 286 286 286 286 286 286 286 286 286 286 285 284 284 283 283 282 282 281 281 280 280 279 279 279 279 279 279 279 279 278 278 277 277 277 277 277 278 278 278 278 278 278 278 278 277 277 277 276 277 277 277 277 277 276 275 275
283 283 283 283 283 283 283 283 283 284 286 286 286 286 286 286 286 287 287 287 287 287 286 286 286 286 286 286 285 285 285 285 285 285 285 285 286 286 286 285 284 283 283 282 282 281 281 280 280 279 279 279 279 279 279 279 279 278 278 278 277 277 277 277 277 277 277 278 278 278 278 278 277 276 276 277 277 277 277 277 277 276 275 274 273
282 282 282 282 282 281 281 281 282 284 286 286 286 285 285 285 285 285 286 286 286 286 286 286 286 285 285 285 285 285 285 285 285 285 285 285 286 286 286 285 284 283 282 282 281 281 280 280 279 279 279 278 278 278 278 279 279 278 278 277 277 277 277 278 278 278 279 279 279 278 278 277 277 277 277 278 278 277 277 276 276 275 273 272 272
281 281 281 281 280 280 279 279 281 284 286 286 285 284 284 284 284 284 284 285 285 286 286 285 285 285 284 284 284 284 284 284 284 284 284 285 286 286 286 285 284 283 282 281 281 280 279 279 279 279 278 278 278 279 279 279 278 278 278 277 277 277 277 278 279 279 279 279 279 278 278 277 277 278 278 278 278 277 276 275 274 273 271 271 271
280 280 280 279 279 278 278 278 281 284 284 283 283 282 282 282 282 283 283 283 284 285 285 285 284 284 284 284 284 284 284 284 284 284 284 285 286 286 286 285 284 283 281 280 280 279 279 278 278 278 278 278 278 279 280 279 278 278 278 278 278 277 278 278 279 279 279 278 278 277 277 277 278 278 278 277 276 276 275 274 273 271 270 270 270
279 279 279 277 277 276 276 278 280 283 282 281 280 280 280 281 281 281 282 282 283 283 283 284 284 284 284 283 283 283 283 283 283 283 283 285 286 286 286 285 284 282 281 280 279 278 278 277 277 277 278 277 278 280 281 280 279 278 278 278 278 278 278 278 278 278 277 277 277 277 277 278 277 277 276 275 275 274 273 272 271 271 270 270 269
278 278 277 276 275 275 275 277 279 280 279 278 278 277 278 278 279 280 281 281 282 282 282 282 282 283 283 283 283 283 283 282 282 282 283 284 285 286 286 285 284 282 281 279 278 278 277 276 276 277 278 278 278 280 281 281 279 278 278 278 278 278 278 277 277 277 276 276 276 276 277 277 276 275 274 274 273 273 271 271 270 270 270 269 269
276 276 275 274 274 274 275 276 276 276 275 275 275 275 276 277 277 278 280 280 281 281 282 282 282 282 282 282 281 282 282 282 282 282 282 283 284 286 286 285 284 282 280 279 278 277 277 276 276 277 278 279 279 280 282 282 280 278 278 278 278 278 277 276 276 276 275 275 276 275 276 275 275 274 273 273 272 271 270 270 270 269 269 269 269
275 274 273 273 273 273 273 273 273 272 272 272 273 273 274 275 276 277 279 280 280 281 281 281 281 281 281 281 281 281 280 281 281 282 282 282 283 285 286 285 284 282 281 279 279 278 277 277 276 277 279 279 279 281 282 282 280 278 277 277 277 277 276 276 276 276 275 275 275 274 274 274 273 273 272 272 271 270 270 270 269 269 268 268 268
273 272 272 272 271 271 271 271 271 270 271 271 271 272 273 274 276 277 278 280 280 280 281 281 281 280 280 280 280 280 280 279 280 281 281 281 282 283 285 285 284 283 281 280 279 278 277 277 277 277 279 280 280 281 282 282 281 278 277 277 278 277 276 275 275 275 274 274 274 273 273 273 273 272 272 271 270 269 269 269 269 268 268 268 268
271 271 270 270 270 270 269 269 269 269 269 270 270 271 272 274 275 276 278 279 280 280 280 280 280 280 280 280 280 280 279 279 279 279 280 280 281 282 284 285 284 283 282 280 279 278 277 277 277 278 279 280 280 281 282 282 281 278 278 278 278 277 276 275 275 274 273 273 273 272 272 272 272 272 271 269 269 268 268 268 269 269 268 268 268
270 270 269 269 269 268 268 268 268 268 268 269 269 270 272 273 275 276 277 279 279 280 280 280 280 280 280 280 280 280 279 279 278 278 278 279 280 280 282 284 284 283 282 281 279 278 277 278 278 278 279 280 280 281 281 282 281 279 279 279 278 277 277 276 275 274 273 273 272 272 272 272 272 270 269 268 268 268 268 268 269 269 268 268 267
269 268 268 268 267 267 267 267 267 267 267 268 269 270 271 272 274 275 277 278 279 280 280 280 280 280 280 280 280 280 279 279 278 277 277 278 279 279 280 282 284 283 282 280 279 278 278 278 278 279 280 280 281 281 281 282 281 280 279 279 278 278 277 276 275 274 274 273 273 273 273 272 270 269 268 268 268 268 268 268 269 269 268 267 266
267 267 267 266 266 266 266 266 266 266 267 267 268 269 270 271 272 274 275 277 278 279 280 280 280 280 280 280 280 280 279 279 278 277 277 277 278 279 279 281 283 284 282 280 279 278 278 278 278 279 280 280 280 280 280 281 281 280 279 278 278 277 277 276 275 275 274 274 273 273 271 270 269 268 268 268 268 268 268 268 268 268 267 266 265
266 265 265 265 265 265 265 265 265 266 266 266 267 268 269 270 271 272 273 275 277 278 279 280 280 280 280 280 280 280 280 279 279 279 279 278 278 278 279 280 282 283 282 279 278 278 278 278 278 279 280 280 279 278 278 278 277 277 276 277 276 276 275 275 275 275 275 274 272 271 270 269 268 267 267 268 269 268 268 267 267 266 266 265 265
264 264 264 264 264 264 264 264 265 265 265 265 266 266 267 269 270 272 273 274 276 278 279 280 280 280 280 280 281 281 280 281 280 280 279 279 278 279 279 279 281 282 281 279 278 278 278 278 278 278 279 279 277 277 276 275 273 273 273 274 274 273 273 274 274 274 273 272 271 270 269 268 267 267 268 268 268 268 267 267 266 266 265 265 265
263 263 263 263 263 263 263 263 264 264 264 265 265 266 267 268 270 272 273 275 276 277 278 279 280 281 281 281 281 281 281 281 281 280 280 279 279 279 279 280 281 282 281 279 278 278 277 278 278 278 278 277 276 275 275 273 272 271 270 270 270 271 272 273 273 272 271 270 269 269 268 268 267 268 268 268 268 268 267 266 266 265 264 264 265
262 262 262 262 262 262 263 263 263 264 264 265 265 266 268 269 270 272 274 275 276 277 278 279 280 281 282 282 282 282 281 281 281 280 280 280 280 280 280 280 281 282 281 280 278 277 277 277 277 277 277 276 275 275 273 272 271 270 269 268 269 271 273 273 272 271 270 269 269 269 268 267 268 268 268 267 267 267 266 266 265 265 264 264 264
261 261 261 261 262 262 262 263 263 264 265 265 266 268 269 270 272 273 274 274 275 277 278 279 280 281 282 282 283 283 282 281 281 281 280 280 280 280 280 281 281 282 282 280 278 278 277 277 277 277 276 276 275 274 273 272 270 269 269 269 269 270 271 271 270 270 269 269 269 268 267 267 268 267 267 267 266 266 265 265 265 264 264 264 264
261 261 261 261 262 262 263 263 263 264 265 266 267 267 268 269 270 271 271 272 273 274 275 277 278 280 281 282 282 283 283 283 281 281 281 280 280 280 281 281 282 282 282 280 278 278 277 277 276 276 275 275 275 274 273 272 271 270 269 269 269 268 269 269 269 269 268 268 268 267 267 267 267 267 267 266 265 265 265 264 264 264 264 264 264
261 261 261 262 262 262 263 263 263 264 264 265 265 265 265 266 267 268 269 270 272 273 275 277 278 279 279 281 282 282 283 283 282 281 281 281 281 281 281 281 281 282 282 280 278 277 277 276 276 275 275 274 274 273 272 271 270 269 268 267 268 268 268 268 268 268 268 267 267 267 267 267 267 267 266 265 265 264 264 264 264 264 264 264 264
261 261 261 262 262 262 262 262 263 263 263 264 264 264 265 265 266 267 268 269 270 271 272 275 278 279 279 280 281 282 283 283 283 282 281 281 281 281 281 281 281 282 282 280 278 277 276 276 275 274 274 274 273 272 272 271 269 268 268 268 269 268 268 267 267 267 267 267 267 267 267 266 266 266 266 265 265 265 265 264 264 264 264 264 264
261 261 261 261 262 262 262 262 263 263 263 264 264 265 266 266 267 267 268 269 270 270 271 274 277 278 279 279 280 281 282 283 283 282 281 281 281 281 281 281 281 282 281 279 277 276 276 275 274 274 273 273 272 271 270 269 268 267 268 269 269 269 268 268 268 267 267 267 267 267 267 266 266 266 265 265 265 265 265 265 264 264 264 264 265
261 261 261 261 262 262 262 262 263 263 264 264 265 266 266 267 268 268 269 269 270 271 273 275 277 278 278 278 278 279 280 281 282 282 281 281 281 281 281 281 281 282 281 278 276 276 275 274 274 273 272 272 271 269 268 267 267 268 269 269 269 269 268 267 267 267 267 267 267 267 267 267 266 266 265 266 266 266 265 265 264 263 264 264 265
260 260 260 260 261 261 262 262 262 263 263 264 265 266 267 267 268 269 270 271 271 273 274 276 277 277 278 278 278 278 279 280 281 282 281 280 281 281 281 281 281 281 279 277 275 275 274 273 272 272 271 270 269 268 267 268 268 269 269 269 268 267 267 267 267 267 267 267 267 267 267 266 266 266 266 266 266 266 265 264 264 264 264 264 265
259 259 259 260 260 261 261 262 262 263 263 264 265 265 266 267 267 268 269 270 271 273 275 276 277 277 277 277 277 278 279 280 281 281 280 280 280 280 280 281 280 279 277 275 274 273 272 271 271 271 270 269 268 268 269 269 269 269 269 268 268 267 267 267 267 267 267 267 267 267 266 266 266 266 266 266 266 265 265 264 264 264 264 264 265
259 259 259 260 260 261 261 261 262 262 263 263 264 264 265 265 266 267 267 269 270 272 274 276 276 277 277 277 277 278 279 279 280 280 280 280 279 280 280 280 279 276 274 273 272 271 271 270 270 270 269 268 268 269 270 269 269 269 268 268 267 267 267 267 267 267 267 266 266 266 266 266 266 266 266 266 266 265 264 264 264 264 264 264 264
259 259 259 260 260 260 260 261 261 261 262 262 263 263 264 265 265 266 267 268 270 272 274 275 276 276 276 277 277 278 278 279 279 279 279 279 279 279 278 277 276 274 273 272 271 271 272 271 270 270 269 269 269 270 269 269 269 269 268 267 267 267 267 266 266 266 266 266 266 266 266 266 266 266 266 266 266 265 264 264 264 264 264 264 264
260 260 260 260 260 260 261 261 261 262 262 262 263 264 264 265 266 267 267 269 270 273 274 275 275 275 276 276 277 278 279 278 278 278 277 277 276 275 274 273 272 272 271 272 272 273 273 272 271 270 270 270 270 270 270 270 269 268 268 267 267 267 267 266 266 266 266 266 266 266 266 266 266 266 266 266 266 265 264 264 264 264 264 264 265
261 261 261 261 261 261 261 261 262 262 263 263 263 264 265 265 266 267 269 270 271 273 274 274 275 275 275 276 277 277 277 276 276 275 274 273 272 271 270 270 271 271 271 271 272 273 273 272 271 270 270 270 270 270 270 269 269 269 268 268 267 267 266 266 266 266 266 266 266 266 266 266 266 266 266 266 266 265 264 264 264 264 264 265 265
262 262 262 262 262 262 263 263 263 263 263 264 264 265 265 266 267 268 270 271 273 274 274 274 275 275 275 275 275 274 273 272 272 271 270 270 269 268 267 269 270 271 271 271 271 272 273 272 271 270 269 269 269 269 269 269 268 268 268 268 267 267 266 266 266 265 265 265 265 265 266 266 266 266 266 266 265 264 264 264 264 264 264 265 265
262 262 263 263 263 264 264 265 265 265 265 265 265 266 266 267 269 270 271 272 273 274 273 273 274 273 272 271 271 270 269 268 268 268 268 268 267 266 267 269 270 270 271 271 271 272 272 272 271 270 269 268 268 268 268 267 267 267 267 267 266 266 266 265 265 265 265 265 265 265 265 265 266 266 266 266 265 265 264 264 264 264 264 265 265
262 262 263 263 264 264 265 265 266 267 267 267 267 268 268 269 270 271 271 272 272 271 271 270 270 269 268 268 267 267 266 266 266 266 266 266 265 266 268 270 270 270 270 270 270 271 271 270 270 269 268 268 267 267 267 267 266 266 266 265 265 265 265 265 265 265 265 264 264 265 265 265 265 266 266 265 265 265 264 264 264 265 265 265 265
261 262 262 263 263 264 264 265 265 266 266 267 267 268 268 269 269 269 269 268 268 268 268 267 267 266 266 266 265 265 265 265 264 264 265 265 265 266 269 270 270 270 269 269 269 269 269 268 268 268 268 267 267 267 266 266 266 265 265 265 265 265 264 264 264 264 264 264 264 264 265 265 265 266 265 265 265 265 264 264 265 265 265 265 265
261 261 262 262 263 263 263 264 264 265 265 266 266 266 266 266 266 266 266 265 265 265 265 265 265 264 264 264 263 263 264 264 263 262 262 262 262 265 268 269 269 268 268 268 267 267 267 267 267 267 267 267 266 266 266 266 265 265 265 264 264 264 264 264 264 264 264 264 264 264 264 265 265 265 265 265 265 265 265 265 265 266 265 265 265
260 261 261 261 262 262 262 263 263 264 264 265 265 265 265 265 264 264 264 264 264 264 263 263 263 263 263 263 262 262 262 262 261 260 260 261 262 264 266 267 267 267 267 267 266 266 266 266 266 266 266 266 265 265 265 265 265 264 264 264 264 264 264 264 264 264 264 264 264 264 265 265 265 264 264 264 264 265 265 266 266 266 265 265 265
260 260 260 260 261 261 261 262 262 262 263 263 263 263 263 263 263 263 263 263 262 262 262 262 262 262 262 262 261 261 260 260 259 259 260 262 264 265 265 266 266 266 266 266 265 265 265 265 265 265 265 265 265 265 264 264 264 264 264 264 264 264 264 264 264 264 264 264 264 264 264 264 263 263 263 264 264 265 266 266 266 266 265 265 265
Wind_Speed
34 31 27 23 20 20 20 21 22 24 26 27 30 32 33 34 34 35 35 36 36 37 38 38 39 41 42 44 45 46 46 46 46 45 46 47 47 47 47 48 49 49 49 48 47 47 46 45 44 43 41 39 38 38 36 35 34 33 31 29 29 27 25 22 12 5 11 17 18 19 19 18 16 16 15 15 15 14 12 11 9 8 7 9 9
35 34 31 28 25 22 21 21 21 22 25 27 29 30 31 33 34 35 36 36 36 37 38 38 39 40 42 44 45 45 46 46 46 47 47 48 48 47 47 48 50 50 48 48 49 48 46 45 44 43 42 40 40 39 39 38 36 35 34 32 32 31 29 27 21 11 11 16 19 19 18 17 16 15 14 14 14 12 11 8 6 6 7 9 11
34 34 34 32 29 27 25 23 21 21 22 25 28 29 30 31 33 35 36 36 36 37 38 38 39 40 41 43 43 44 44 45 46 48 49 50 49 48 47 48 50 49 49 50 49 48 46 45 45 44 43 41 40 40 39 39 38 37 36 35 33 32 31 28 25 19 14 15 17 18 16 16 16 14 13 13 13 12 10 7 6 7 8 9 11
34 35 35 34 33 32 30 28 25 23 22 24 26 27 29 30 31 33 35 35 36 36 37 38 39 39 41 41 42 43 44 45 46 48 49 49 48 47 46 47 49 49 49 50 50 50 49 48 47 46 45 43 42 41 41 40 40 38 37 35 34 33 32 30 27 23 18 14 14 15 15 14 14 13 13 13 12 11 10 8 7 9 10 10 11
36 35 35 35 35 35 33 32 29 27 26 25 26 27 28 29 30 32 33 34 35 35 36 36 37 39 41 42 42 44 45 46 47 48 49 47 47 46 45 46 48 48 49 49 50 52 52 52 51 49 48 46 45 44 44 42 41 40 38 37 35 33 32 31 29 25 21 18 16 14 14 13 12 12 11 11 10 10 9 8 8 10 11 11 12
34 34 34 34 35 35 35 34 32 30 28 27 27 27 27 27 28 30 31 33 34 35 35 36 37 39 41 42 42 43 43 44 46 47 48 47 46 46 45 45 47 48 48 48 49 52 53 53 52 51 51 51 49 48 47 45 43 42 40 38 37 35 33 32 31 27 23 21 18 14 13 12 12 11 10 9 8 7 7 7 9 11 12 14 13
32 31 31 31 33 35 35 35 33 32 30 28 27 26 26 27 27 28 29 30 32 33 34 36 36 38 40 41 41 41 41 43 45 46 46 46 46 46 45 45 46 47 48 48 48 50 52 52 52 53 55 54 53 52 49 48 46 44 43 41 38 36 34 32 30 27 24 21 18 15 12 11 11 11 9 7 7 8 8 7 8 9 11 13 14
29 29 29 28 30 32 34 35 35 34 33 31 29 27 26 26 26 27 27 28 30 32 33 35 36 37 38 39 40 40 41 42 44 45 45 45 46 46 45 45 46 47 47 47 47 49 51 52 52 54 56 56 55 55 53 51 49 46 44 42 40 38 36 34 31 28 25 22 18 15 12 9 10 10 9 8 9 11 11 9 7 8 9 11 14
28 28 27 26 27 28 30 32 34 35 35 34 33 31 29 27 26 25 26 27 28 30 32 33 34 36 36 37 38 39 40 43 44 44 44 44 44 45 45 45 46 46 46 45 46 48 49 50 51 52 54 55 55 54 53 52 51 49 47 45 43 41 38 35 33 30 26 20 17 14 11 10 10 11 12 13 13 12 11 10 9 9 9 11 14
27 27 26 26 27 27 28 30 33 35 35 35 35 34 32 29 27 25 25 25 26 28 30 32 33 34 35 35 36 38 40 42 43 43 45 46 45 44 44 45 44 44 44 43 44 46 47 48 49 49 49 51 51 51 51 50 50 49 49 48 47 44 40 37 35 33 29 23 19 16 13 12 14 15 15 16 15 13 11 10 9 9 8 10 13
25 26 26 26 27 28 28 29 31 33 34 35 36 36 35 33 30 28 26 25 26 26 28 30 31 33 33 34 36 38 40 41 41 42 45 46 46 44 43 44 43 43 43 43 44 45 46 47 47 46 46 47 47 47 47 48 48 47 47 47 47 45 42 40 38 36 33 28 22 19 16 14 15 17 16 16 16 14 12 11 10 9 9 10 10
23 23 24 25 27 28 28 30 31 32 32 33 34 35 35 34 33 31 29 27 26 26 26 28 30 31 32 34 36 37 39 40 40 42 44 45 47 46 44 42 42 43 43 44 44 44 45 46 46 46 47 47 46 45 44 44 45 45 44 43 44 44 42 40 38 37 36 33 27 24 22 17 16 18 19 18 17 14 13 12 12 12 12 12 11
22 22 22 23 25 26 28 29 30 31 31 31 31 32 33 33 32 31 30 28 26 26 26 27 29 30 31 33 35 37 38 39 39 41 42 44 46 47 45 43 42 43 44 44 44 44 44 44 44 44 45 45 45 44 43 41 41 41 40 39 40 41 39 37 35 33 35 36 32 28 27 23 18 19 21 19 16 15 14 14 13 13 12 12 11
23 21 21 22 23 24 26 27 29 30 30 30 30 31 31 31 31 30 29 28 26 26 27 27 28 29 30 32 35 36 37 38 37 39 40 42 44 46 45 44 43 43 44 44 44 44 45 45 45 44 43 43 44 44 43 41 38 37 37 36 37 38 37 35 32 30 31 33 32 30 29 24 19 18 19 19 17 15 14 14 14 13 12 12 12
24 23 23 24 24 25 26 27 28 28 28 28 28 30 30 30 31 31 29 27 26 26 26 27 29 29 30 31 33 35 36 36 36 37 38 40 41 43 43 44 43 43 43 44 44 44 45 45 46 45 44 44 45 46 45 42 39 37 36 35 36 36 35 34 33 31 30 31 30 29 26 21 17 16 18 17 15 13 13 13 14 13 12 14 16
24 23 25 27 27 27 28 29 29 28 26 25 26 27 28 29 31 31 29 28 27 26 26 27 28 30 30 30 32 34 35 35 35 36 37 37 38 39 40 41 42 41 41 41 42 42 43 44 45 44 42 43 44 45 45 43 40 39 37 35 34 35 34 33 32 31 29 27 25 24 20 17 16 16 16 15 13 13 14 14 14 13 12 12 15
23 23 24 26 28 30 30 31 31 29 26 25 25 26 26 28 29 29 29 29 29 28 28 28 27 29 30 30 31 33 34 34 34 35 36 35 35 36 37 37 39 40 40 39 39 40 41 42 44 42 41 42 43 42 43 42 40 38 37 34 31 31 31 29 27 25 23 22 21 20 18 16 16 16 16 14 13 13 15 15 14 13 11 8 8
23 23 25 26 28 30 31 32 31 30 28 27 28 29 29 29 28 28 27 28 29 30 30 29 28 28 29 30 31 32 33 33 32 33 34 33 34 36 35 35 36 38 37 35 36 37 37 38 41 43 42 42 42 39 40 42 40 38 37 34 32 31 30 29 27 24 21 20 20 19 17 16 16 17 17 15 14 13 15 15 14 12 11 8 6
24 24 26 28 29 31 31 31 29 28 29 30 32 33 33 32 31 30 28 28 29 29 29 29 30 29 29 29 30 31 32 32 31 31 31 31 34 36 35 34 34 34 33 32 32 33 34 35 38 42 42 41 40 38 38 42 42 40 40 38 34 32 33 34 33 28 24 23 20 18 18 18 19 20 19 17 16 16 16 16 15 14 13 13 10
26 26 29 31 32 33 32 30 28 28 30 33 34 35 35 35 34 33 31 30 29 28 27 27 29 31 30 29 29 30 30 30 29 30 30 30 33 35 35 34 33 31 30 30 30 30 32 33 34 38 39 38 38 36 36 40 41 40 40 39 37 36 36 36 35 32 28 26 22 20 21 22 21 21 19 18 19 19 18 17 16 14 13 14 12
25 26 30 33 35 35 32 29 28 29 32 34 34 36 37 36 36 35 34 32 30 30 28 27 27 29 29 28 29 29 29 29 29 29 29 30 32 35 36 36 34 32 30 30 31 31 32 32 33 34 35 35 36 36 35 36 38 40 40 39 37 36 35 33 32 30 28 26 23 21 23 23 21 20 19 19 19 18 17 15 13 12 11 13 13
25 27 31 33 33 33 31 29 30 33 36 35 34 37 39 37 36 36 35 33 32 32 31 28 26 28 28 27 28 29 29 29 29 29 29 29 30 34 37 38 37 34 32 31 31 32 32 33 34 34 33 33 36 37 37 35 36 39 40 37 34 31 31 31 29 27 26 26 24 23 23 22 21 20 19 19 18 17 15 13 11 10 10 11 11
28 30 32 32 32 32 32 33 35 37 37 36 34 37 39 37 36 35 34 33 32 31 31 29 26 26 27 26 28 29 29 28 28 29 30 31 31 34 37 39 38 36 34 32 33 35 34 34 35 34 33 35 37 38 38 36 34 36 37 35 31 29 29 30 30 28 27 26 24 22 22 22 21 20 19 19 18 17 14 11 9 9 9 9 10
30 32 33 33 34 35 35 37 39 38 38 37 34 35 37 35 34 33 32 30 29 28 29 27 24 24 25 25 27 28 27 27 28 29 30 32 32 34 36 39 39 40 38 35 34 35 36 35 35 35 35 37 37 36 37 36 33 33 34 32 30 29 30 31 31 28 26 25 23 20 20 22 21 20 19 18 17 15 12 9 9 9 9 10 10
31 33 34 35 37 37 38 40 40 39 38 36 33 34 35 34 32 31 30 28 27 26 27 26 24 23 23 23 25 25 25 25 27 28 29 30 31 33 35 37 37 39 40 36 32 32 34 35 36 37 38 37 35 34 36 36 31 30 31 31 30 31 31 32 31 28 24 22 20 19 19 21 20 18 17 16 15 13 11 10 10 9 10 11 11
32 34 35 37 39 38 38 40 40 39 38 36 33 33 33 32 31 30 28 27 27 26 26 25 24 23 23 24 25 24 23 24 26 28 27 27 29 31 34 36 35 36 39 39 34 31 31 32 33 34 35 35 35 34 36 36 32 30 31 31 31 32 31 31 32 29 24 21 21 21 21 20 18 17 16 16 15 12 10 9 9 9 9 9 11
32 34 37 39 39 38 37 37 39 39 38 35 33 33 32 30 29 28 28 27 26 25 25 24 23 22 23 24 24 23 23 24 25 26 25 26 28 31 33 36 35 34 35 35 32 30 29 29 30 31 31 32 34 35 36 37 35 35 36 35 34 33 32 32 32 29 25 24 24 23 21 18 16 17 17 16 13 10 9 8 8 8 8 9 11
32 35 39 39 39 38 37 36 36 37 37 35 33 33 33 31 29 29 30 29 27 26 25 24 24 24 24 24 23 21 22 25 26 26 26 27 29 30 31 32 32 32 33 32 31 30 29 29 29 29 30 31 31 30 32 34 34 36 39 38 36 36 34 32 31 29 27 25 23 21 19 19 19 19 17 14 11 8 7 6 7 7 8 8 8
34 37 39 38 38 38 36 35 35 36 36 37 36 36 36 34 32 34 36 35 33 31 29 28 29 29 28 26 24 20 21 26 29 29 29 30 30 31 32 32 32 32 33 32 31 30 29 29 29 28 29 29 27 26 28 29 29 31 35 37 37 36 36 35 34 32 30 25 22 21 21 20 20 18 15 12 9 7 5 5 5 6 7 7 7
35 36 37 36 36 36 34 35 35 35 35 36 36 38 40 38 35 36 39 39 37 35 34 35 36 34 31 31 31 29 29 32 30 29 30 30 30 32 34 34 32 31 31 32 32 31 29 27 28 29 28 27 26 27 29 29 28 28 30 32 33 32 32 32 32 31 28 24 22 22 21 20 19 16 13 11 8 6 5 4 4 5 7 7 7
33 34 35 34 34 33 33 35 35 34 35 34 33 34 37 38 37 37 38 39 38 37 37 39 40 39 36 35 35 35 36 34 30 28 29 28 29 31 33 33 32 30 31 33 32 30 28 27 26 28 28 26 25 27 29 30 30 29 26 25 26 28 29 28 26 25 24 22 22 21 21 20 18 15 11 9 7 5 4 4 5 5 7 9 9
33 35 36 36 35 33 32 33 33 31 32 31 30 30 30 31 31 32 32 33 33 34 35 36 38 39 39 39 37 35 34 32 28 27 27 27 28 31 32 33 33 33 34 36 31 28 28 27 26 27 28 26 25 26 27 27 27 27 26 24 24 27 30 29 26 25 24 22 22 22 21 19 17 13 10 8 6 4 3 4 5 7 8 10 11
35 36 36 35 35 32 30 29 29 28 27 27 26 26 24 21 20 21 23 25 28 30 31 32 34 35 36 38 38 37 36 33 29 27 26 26 29 31 33 34 35 35 37 37 31 28 28 27 27 28 29 28 27 27 28 27 27 27 29 29 28 29 30 29 26 24 23 22 22 22 20 18 15 12 9 7 5 4 4 5 6 8 9 10 10
35 35 35 33 33 31 29 28 27 27 27 26 24 23 23 22 20 19 19 21 23 27 29 31 33 34 33 34 36 37 36 34 30 27 27 27 29 31 32 33 34 37 40 38 30 27 28 26 26 28 29 29 30 30 28 28 28 28 28 28 29 30 30 28 26 25 24 23 22 21 19 17 14 11 9 7 5 4 5 6 7 9 9 9 9
36 36 35 33 33 32 30 30 29 29 29 28 27 27 27 27 25 24 23 21 20 23 25 25 25 27 30 31 33 34 35 34 31 29 28 28 29 30 30 29 28 32 37 35 30 28 28 27 26 28 30 30 32 32 30 29 29 28 26 27 30 31 30 28 27 26 25 24 22 20 18 15 13 11 9 8 6 5 6 6 7 9 10 11 11
36 35 34 34 34 34 34 34 33 32 31 31 31 31 31 29 26 26 26 26 23 24 26 25 22 23 27 30 32 32 32 33 32 29 28 28 29 29 28 25 24 25 28 30 29 29 29 29 29 30 31 31 31 31 31 29 28 28 29 32 34 33 31 29 28 26 24 22 21 19 16 15 13 11 9 8 6 5 5 6 7 9 11 12 12
35 34 33 34 35 36 36 35 34 33 32 31 30 29 28 27 26 25 24 24 24 23 25 25 23 19 20 25 29 29 29 30 31 29 28 28 29 29 28 25 23 22 23 25 26 27 28 29 30 30 31 31 30 29 28 27 27 29 32 34 33 31 30 29 27 25 24 21 19 18 16 15 13 11 9 8 6 4 5 6 7 10 11 11 12
34 34 34 34 34 33 32 31 30 30 30 29 28 27 25 25 25 25 24 25 25 23 22 22 20 17 16 19 24 26 26 26 26 26 27 27 27 28 27 26 23 21 21 23 26 28 27 27 28 30 30 31 30 29 27 28 31 34 35 33 31 29 28 27 25 23 22 20 19 18 17 14 13 11 9 8 6 4 5 6 7 10 11 11 12
32 33 34 34 32 30 29 29 28 27 27 26 24 24 24 23 22 22 22 21 22 22 20 19 18 18 18 19 21 22 20 19 20 21 23 25 25 25 25 25 23 21 22 25 28 29 27 27 28 29 30 31 31 30 31 33 36 36 35 32 31 29 28 27 25 24 22 20 18 17 16 14 13 11 9 7 5 4 5 6 8 10 10 11 13
32 31 31 30 29 28 27 27 25 24 24 23 23 22 23 22 21 21 21 20 20 20 18 17 17 18 19 20 20 18 16 16 18 19 20 22 24 23 22 22 21 21 23 27 29 29 28 28 29 30 30 31 31 32 35 37 37 35 33 32 31 29 27 26 25 23 21 19 18 16 15 15 13 11 9 6 5 5 5 7 8 10 11 13 16
30 29 28 27 27 26 25 25 25 24 24 24 24 23 23 23 23 23 23 22 21 20 19 18 17 18 20 20 20 20 19 17 18 18 19 20 21 21 20 19 21 23 26 28 29 30 30 30 31 32 32 31 32 35 37 38 36 34 32 30 29 28 26 24 22 21 19 18 17 16 16 15 13 11 9 6 4 4 5 7 9 12 15 17 18
29 28 28 27 26 24 23 24 25 25 24 24 24 23 23 23 23 22 22 22 21 20 18 17 17 18 19 19 20 22 22 19 18 17 17 18 18 17 16 18 22 26 29 30 31 33 34 33 33 33 33 33 35 37 38 37 35 33 31 29 28 27 25 23 21 19 18 18 17 16 16 15 13 11 8 5 4 5 7 9 12 14 16 17 18
29 29 29 29 27 24 23 23 24 23 23 23 23 23 23 22 22 22 21 21 21 19 17 16 16 17 17 18 20 22 21 18 16 15 14 15 16 15 16 19 23 26 30 33 35 36 37 36 34 33 33 35 37 38 37 35 32 31 29 28 26 24 23 22 21 20 18 17 16 16 15 13 11 9 7 5 5 6 8 10 13 15 16 18 19
27 27 27 28 27 25 24 24 24 23 23 23 23 22 22 21 21 20 20 19 19 18 16 16 16 15 15 15 16 15 12 12 15 15 15 17 18 18 20 23 27 29 31 34 35 36 36 34 33 33 33 33 33 32 31 29 28 27 27 26 24 23 22 21 20 19 18 16 16 15 14 12 11 9 7 6 6 8 9 11 13 15 16 17 18
25 24 24 25 25 24 24 24 24 23 22 21 20 20 20 20 19 19 19 18 18 17 15 15 14 12 11 9 8 7 11 15 17 18 18 20 20 20 22 25 29 31 32 32 33 33 33 33 34 36 35 32 29 27 26 25 23 22 21 21 20 20 19 17 17 16 15 14 14 13 12 11 10 9 7 6 6 8 10 12 14 15 17 18 18
23 22 21 21 21 21 21 22 22 21 21 19 18 18 18 19 19 20 20 18 15 12 10 8 8 8 8 9 11 13 15 17 19 20 21 22 21 22 24 28 30 31 32 32 32 32 32 34 36 37 35 32 28 26 24 23 21 19 18 16 15 15 15 15 15 14 13 12 12 11 11 10 10 8 7 6 7 9 11 14 16 17 18 19 18
22 21 19 18 18 17 17 17 17 15 14 14 14 15 15 15 14 13 10 6 4 5 6 7 9 11 12 14 16 17 18 19 21 22 22 23 23 25 29 32 33 34 35 35 34 34 34 34 34 33 32 30 28 26 24 22 20 19 17 16 15 15 15 15 14 13 12 11 11 10 10 10 9 7 6 6 8 11 13 15 17 18 18 18 19
22 21 20 18 17 16 16 16 16 15 13 9 6 5 4 3 3 5 8 10 12 13 14 14 15 17 18 18 19 20 21 22 24 24 24 24 26 29 33 36 37 38 38 36 34 33 32 31 29 28 27 26 25 23 22 21 19 17 16 15 14 14 13 13 12 11 11 10 10 9 9 9 8 6 5 7 9 12 15 17 17 18 18 18 19
22 21 20 19 18 18 18 18 17 17 17 16 14 13 13 14 14 14 15 17 17 18 18 18 19 20 20 21 21 23 25 25 26 26 26 25 27 31 36 39 39 40 39 37 34 31 30 28 27 25 24 23 22 21 20 18 17 16 15 13 13 12 11 11 10 10 10 10 10 9 9 8 7 5 7 9 11 14 16 16 16 18 19 19 19
22 22 21 20 20 20 20 19 19 19 20 19 17 15 15 16 16 17 17 18 19 19 19 20 20 20 21 22 23 24 24 24 23 24 26 29 32 35 38 40 39 38 37 35 33 30 29 27 25 24 22 21 20 18 17 15 14 13 12 11 10 10 9 9 9 9 10 10 9 9 9 7 6 7 9 11 13 15 16 17 17 18 19 19 19
23 23 23 22 22 23 23 22 21 21 21 20 19 18 17 17 18 18 18 19 18 18 19 20 20 21 21 21 21 21 23 24 24 25 30 35 37 38 38 38 37 36 35 33 31 29 27 25 24 22 20 19 18 16 14 13 12 11 10 9 9 9 8 9 9 9 9 9 9 8 7 6 8 10 12 13 14 16 17 17 17 19 20 20 21
Wind_Direction
14 11 4 352 335 317 302 291 281 273 267 262 257 254 252 252 252 253 250 246 242 239 236 233 231 230 228 227 226 225 225 224 223 222 222 222 221 221 220 219 218 218 218 218 217 218 218 217 217 216 215 213 212 212 212 212 211 212 213 213 212 213 211 208 204 164 170 186 189 189 195 202 211 223 236 254 267 271 272 275 285 305 323 335 343
10 12 11 6 356 344 330 317 304 290 278 270 265 261 259 256 255 253 251 249 246 242 239 236 233 231 229 228 227 225 224 224 223 222 222 222 221 220 219 218 218 216 216 216 216 216 216 215 215 214 213 212 212 212 211 210 210 210 211 210 211 212 210 207 204 188 166 178 189 196 201 210 224 236 245 254 261 264 267 272 292 314 328 335 340
8 10 11 10 8 4 356 345 329 310 293 283 277 273 270 266 261 256 252 250 248 244 241 238 235 232 230 229 227 225 224 223 223 223 223 222 221 220 220 218 217 215 214 215 214 213 213 212 213 212 211 210 210 211 211 210 210 210 210 210 210 211 210 208 207 200 180 175 190 204 211 219 229 237 246 257 264 268 272 284 308 321 332 337 335
9 10 10 9 11 11 8 2 351 334 318 304 295 289 284 278 271 264 258 254 250 247 244 240 236 233 230 228 227 225 225 224 224 224 224 223 222 222 221 220 218 216 215 215 214 212 211 211 211 211 209 208 208 208 209 209 209 209 209 210 210 211 211 209 209 208 198 184 189 205 215 221 229 240 253 263 266 268 276 291 309 318 324 329 331
8 8 8 7 8 8 7 6 1 352 339 325 315 305 297 288 279 271 265 259 255 251 246 241 237 234 232 230 228 227 226 224 224 224 224 223 223 223 222 221 220 219 217 216 214 214 213 212 211 210 208 206 205 206 207 207 207 207 208 208 209 209 209 209 210 210 206 200 196 203 217 227 236 246 255 258 260 267 278 290 303 314 319 321 325
6 6 6 5 5 5 4 3 1 358 351 341 331 320 309 299 287 277 270 264 258 253 248 243 239 236 235 233 230 229 227 225 225 225 224 223 223 223 223 223 222 221 219 218 216 215 214 213 212 210 208 207 205 205 206 205 205 205 206 207 207 206 206 207 207 207 208 209 206 206 218 231 241 246 244 241 249 265 281 296 302 309 316 317 318
3 4 4 3 2 1 1 360 358 357 355 351 344 334 322 310 299 288 279 270 262 255 250 247 243 241 239 236 233 231 228 227 227 226 225 223 223 222 223 223 222 221 221 219 218 217 215 214 212 212 211 210 209 207 206 204 204 205 206 205 204 202 201 202 203 202 204 206 208 212 218 225 235 241 235 227 237 249 255 274 291 298 306 308 309
360 359 360 0 359 358 357 357 356 356 355 355 352 347 337 325 313 302 290 279 270 262 257 253 249 246 242 238 236 233 231 229 228 226 225 224 223 222 222 222 222 222 221 220 219 218 217 215 214 214 214 214 213 212 209 206 203 203 204 204 201 199 198 197 196 196 198 199 203 208 212 215 221 225 220 212 222 230 226 227 248 270 281 286 287
356 355 355 355 354 353 353 353 354 355 355 354 353 351 347 340 329 316 303 290 280 272 265 259 254 249 245 241 239 236 233 232 230 227 226 224 223 223 222 222 223 222 221 221 220 219 218 216 215 216 216 215 215 214 214 212 208 205 203 202 200 198 197 195 192 190 189 189 193 195 198 204 203 201 204 208 212 213 205 207 230 251 261 266 267
351 351 350 350 349 349 349 349 350 351 352 352 351 350 349 346 338 327 315 302 291 281 272 264 257 252 249 245 241 238 236 235 233 230 228 226 224 223 222 222 222 222 222 221 220 219 219 218 217 216 216 215 214 214 214 213 213 211 209 206 202 198 194 192 191 190 186 183 184 184 187 200 199 194 200 206 205 201 197 206 223 234 240 251 259
345 345 345 345 345 346 346 346 346 346 347 348 349 349 348 346 343 336 326 315 303 291 279 269 261 256 252 249 245 242 240 239 237 234 232 229 226 224 223 223 222 222 222 221 220 219 218 217 217 216 215 215 213 213 212 211 210 211 212 211 208 203 198 194 191 189 187 186 186 185 188 196 198 195 198 201 199 198 202 208 213 217 222 231 247
340 340 341 342 343 343 343 342 341 341 342 343 344 345 345 344 343 340 334 326 315 302 288 276 268 262 256 252 249 246 245 244 241 238 235 232 229 226 224 223 222 221 222 222 221 219 217 216 215 215 215 214 213 212 211 211 210 209 209 210 209 209 209 207 202 197 193 189 187 191 195 193 191 195 198 196 193 196 203 207 210 215 220 225 237
338 337 338 339 339 339 339 338 337 336 336 336 337 339 340 340 339 337 334 329 320 307 295 284 274 266 260 255 253 251 250 248 244 241 238 234 231 228 226 225 223 222 222 222 221 220 217 215 213 214 214 213 211 210 208 207 208 208 208 207 208 209 212 214 216 215 207 197 192 196 199 194 190 197 199 193 190 194 200 207 213 215 217 223 237
335 334 335 336 336 336 335 334 332 331 331 332 333 334 334 334 334 332 330 327 321 311 301 291 281 272 264 259 256 255 253 251 247 243 240 236 232 228 227 226 225 225 224 223 221 220 218 215 212 211 211 209 208 207 205 203 202 202 203 204 206 208 209 211 213 215 214 207 202 203 203 198 194 197 197 194 194 197 201 209 213 211 216 234 250
331 332 332 332 333 333 332 330 328 327 327 329 330 330 330 329 328 328 326 322 318 312 304 295 286 278 271 264 260 258 256 253 250 246 241 237 232 228 227 226 226 227 226 224 222 220 218 216 213 211 209 208 207 205 202 200 197 196 197 199 202 205 207 208 208 207 209 210 211 210 204 197 195 196 197 198 201 206 211 214 216 221 235 256 269
326 327 327 329 330 330 330 328 326 324 324 325 325 325 325 324 323 324 322 319 316 311 304 297 289 282 276 269 263 261 260 257 252 248 243 237 231 227 226 226 226 227 227 225 223 221 219 217 214 212 209 208 207 205 202 198 194 193 193 194 198 201 203 205 207 207 207 207 209 209 201 194 197 201 201 201 203 210 216 218 229 243 253 267 278
318 320 321 323 325 326 326 326 324 322 322 322 322 321 320 319 318 319 318 315 313 309 304 299 292 285 278 271 265 262 261 259 253 249 244 235 227 226 226 225 226 228 228 226 224 221 220 218 214 211 210 208 206 202 200 197 194 191 190 189 191 195 198 200 202 204 204 203 205 207 204 200 202 207 210 208 206 214 221 226 240 248 247 257 271
313 315 316 318 320 321 321 322 321 319 319 320 320 320 318 316 315 314 312 309 307 306 303 297 291 285 278 272 267 263 262 260 255 250 244 233 226 226 226 224 226 227 227 226 224 221 219 218 215 212 210 209 204 198 196 196 194 191 189 187 188 192 194 194 193 194 197 201 205 208 207 205 205 211 214 210 207 217 227 234 245 250 246 244 232
310 312 312 314 316 316 317 318 316 314 314 316 317 317 316 314 312 311 308 304 301 301 299 293 288 284 277 273 268 263 262 260 255 250 243 232 226 227 226 223 225 226 225 223 221 220 218 217 216 213 212 209 203 195 194 197 197 194 190 187 186 190 193 192 191 190 191 196 199 201 203 207 209 212 213 210 211 222 235 247 256 255 251 247 233
306 307 308 311 313 313 315 315 311 309 311 313 314 313 312 311 310 309 306 302 298 295 291 285 282 281 278 274 268 263 260 258 254 249 242 231 226 226 225 223 223 223 221 218 217 216 216 215 213 211 210 207 201 195 195 199 200 197 193 190 190 191 193 195 193 191 190 190 190 194 200 206 209 211 217 222 225 233 244 253 257 251 246 245 236
299 300 303 307 309 310 311 311 307 307 308 310 310 309 307 307 307 306 304 301 297 292 287 281 276 276 276 272 268 264 260 257 254 250 243 234 228 226 226 225 222 219 217 216 215 213 210 210 209 206 204 202 199 196 197 199 201 200 197 197 197 196 193 192 191 190 189 187 188 195 200 204 209 216 226 233 236 243 250 250 249 246 240 240 236
294 299 302 304 304 305 306 304 303 304 306 307 307 305 304 304 304 303 302 299 296 292 288 284 278 275 275 271 266 263 259 255 252 249 246 239 231 229 229 227 224 219 215 214 214 211 209 208 207 202 198 198 198 198 198 197 199 201 200 199 199 196 192 188 184 184 187 186 189 197 200 205 214 223 232 239 244 250 251 244 240 242 240 240 241
298 301 301 301 301 300 300 299 301 302 302 304 304 301 300 301 301 300 299 296 294 291 288 285 280 277 275 272 268 264 258 253 249 247 246 242 236 234 234 232 227 222 218 216 215 212 208 208 206 200 196 198 200 199 198 197 196 198 198 196 192 190 188 184 180 180 184 186 189 195 202 210 217 223 231 240 247 247 243 239 241 244 244 242 241
300 300 299 299 298 297 298 299 300 300 300 301 300 297 296 297 297 296 294 291 288 286 284 283 278 274 273 271 269 267 261 256 251 246 244 243 240 237 236 234 229 225 223 221 218 213 208 204 202 197 196 199 201 199 199 198 195 194 193 189 183 182 181 179 178 178 179 182 188 195 206 213 215 222 232 240 241 238 234 240 247 247 249 249 247
298 297 297 296 295 297 298 298 297 297 297 297 296 293 292 292 291 290 289 285 281 278 278 278 273 270 269 268 267 266 262 258 253 246 241 240 239 238 238 235 228 222 222 222 219 215 210 205 203 199 197 197 198 197 199 199 193 187 186 183 180 179 179 177 178 177 175 180 190 197 206 213 218 226 234 232 228 228 231 243 253 255 260 266 270
295 294 293 293 293 295 296 296 296 296 295 294 290 287 286 285 285 284 283 280 275 272 272 272 270 267 266 265 264 263 259 254 250 244 236 233 234 235 237 237 229 220 219 220 218 213 208 204 202 199 196 195 194 193 196 197 191 183 182 183 182 180 179 179 179 177 176 184 194 202 209 218 223 225 224 220 221 228 236 247 261 269 277 289 296
292 291 290 291 292 293 293 293 293 293 293 291 289 285 282 279 278 277 276 274 272 269 267 266 265 263 262 263 263 261 257 251 246 241 232 228 229 230 232 235 230 219 213 213 210 204 200 199 199 198 196 195 195 193 192 192 189 182 181 183 184 183 186 187 183 180 183 191 200 208 215 218 217 214 215 217 222 230 239 252 267 278 295 308 307
290 289 288 290 290 290 290 290 289 290 290 288 286 283 280 278 274 271 269 267 266 266 264 261 260 258 258 261 262 259 255 249 243 239 232 227 227 227 227 230 228 217 207 202 200 197 195 194 195 195 195 196 195 192 189 189 187 181 178 180 182 184 186 185 182 185 192 197 203 210 213 212 211 211 214 218 223 228 237 256 273 288 308 315 302
290 288 288 288 288 289 289 288 286 286 286 286 284 280 277 274 271 270 269 265 261 261 261 260 259 258 257 257 255 251 250 249 246 243 240 235 229 226 225 224 223 216 204 195 189 187 187 189 189 190 191 192 188 183 180 180 177 174 174 176 178 178 179 179 182 189 194 197 200 205 207 208 209 211 214 217 222 227 236 262 282 296 309 304 285
290 288 287 287 287 288 288 286 285 284 284 284 284 283 280 275 269 266 267 266 263 259 258 258 258 258 257 255 253 250 251 254 253 250 245 238 230 227 225 222 221 215 199 187 182 182 183 185 188 188 188 187 182 177 174 172 169 167 169 171 172 172 175 179 185 188 190 192 196 200 204 206 207 209 211 212 216 223 232 260 284 293 296 287 273
286 285 285 285 285 286 286 285 285 284 282 281 280 282 283 281 275 268 264 265 265 263 260 260 259 258 256 255 255 254 253 253 252 250 244 234 225 226 225 221 220 213 193 180 180 183 184 185 187 188 187 185 183 178 174 172 169 166 163 164 167 172 177 181 184 187 187 188 192 197 202 206 207 208 208 206 214 225 235 270 289 290 289 284 276
281 282 284 285 285 285 284 285 285 283 281 280 277 275 276 278 279 275 268 264 264 262 261 260 259 258 255 254 254 254 253 249 244 239 237 229 223 225 224 219 220 213 192 181 183 187 188 187 187 187 186 184 183 180 175 172 170 167 164 163 167 176 183 185 186 188 188 188 192 196 200 203 205 204 201 199 210 232 257 288 294 293 293 287 281
279 280 282 284 284 284 283 283 282 281 280 277 274 272 272 273 280 286 285 281 276 271 267 265 263 260 256 253 253 253 251 247 239 232 230 226 222 224 222 218 219 212 194 185 187 190 189 190 189 186 184 182 181 180 179 176 172 171 172 173 172 177 182 184 185 187 188 190 193 195 198 201 200 194 192 194 203 228 263 287 293 295 295 287 281
280 279 280 281 282 282 281 280 279 279 279 278 278 282 285 287 289 294 295 294 288 280 273 268 263 260 257 255 254 253 250 245 236 227 226 226 222 221 220 219 220 213 198 190 191 190 188 189 188 185 183 182 181 181 182 181 179 178 177 176 174 173 174 177 180 183 185 187 191 194 196 197 193 186 186 190 197 220 255 281 291 292 293 287 283
281 278 278 278 279 279 278 277 276 276 276 277 280 283 284 283 284 283 281 281 282 282 278 269 259 255 255 256 256 254 249 244 235 225 222 223 221 218 217 217 220 214 201 194 192 191 188 187 186 184 183 182 182 183 184 184 182 180 175 171 170 170 171 173 177 181 183 185 189 192 193 191 187 184 183 187 198 222 248 274 288 291 293 291 285
281 280 278 278 277 277 277 276 274 272 272 272 273 274 274 272 272 271 269 267 268 273 275 272 265 257 252 252 255 254 248 244 236 224 217 219 218 214 213 213 215 212 202 193 190 189 187 187 186 184 184 183 182 183 184 183 181 179 176 174 172 171 171 174 176 179 183 186 188 190 189 186 183 180 182 194 212 230 253 278 291 293 293 290 284
282 281 279 278 278 277 276 274 272 270 270 269 267 265 263 263 264 264 264 263 263 264 266 266 266 259 247 246 252 253 249 245 238 224 214 216 217 214 213 214 214 210 201 192 187 184 183 186 186 184 182 181 179 179 180 178 174 173 173 174 174 173 173 176 179 181 183 186 187 188 186 184 181 181 185 199 213 233 263 282 291 291 289 285 283
284 282 281 280 280 279 277 275 274 273 273 271 267 264 262 261 261 261 260 259 260 261 262 261 260 255 245 242 247 248 246 245 239 224 212 212 215 215 214 215 214 210 199 188 182 180 180 183 183 181 180 180 178 175 172 170 171 172 172 172 173 172 173 176 179 182 184 185 185 185 184 181 181 185 190 197 209 238 266 279 287 287 284 282 281
287 285 284 283 282 280 278 276 275 274 272 270 269 268 268 268 267 265 263 260 258 257 257 254 251 249 246 243 243 241 238 236 231 218 204 204 211 214 213 213 212 205 191 179 176 177 177 176 175 176 178 178 176 173 170 169 171 173 173 170 169 170 173 176 178 179 181 181 180 181 181 180 182 187 192 198 215 245 264 279 286 282 275 275 279
287 285 284 283 281 279 277 275 273 271 270 269 269 270 270 272 275 276 277 276 272 268 264 256 248 247 246 242 237 232 226 224 222 212 200 198 204 210 213 213 206 192 178 172 172 173 170 167 170 175 177 177 175 174 172 171 170 171 171 171 171 173 176 178 178 176 177 177 178 178 179 181 185 189 194 204 224 251 269 282 286 279 273 276 281
286 283 281 280 279 277 276 274 271 269 269 269 269 268 268 268 269 270 271 273 273 272 272 267 259 252 248 243 237 231 225 223 221 213 203 198 200 206 212 209 195 178 169 166 165 164 162 163 170 177 178 176 174 172 171 169 168 167 169 172 174 175 175 174 174 174 174 175 177 179 180 184 188 191 196 208 230 261 277 279 278 278 280 282 282
285 282 280 279 276 273 270 268 267 267 266 264 263 262 262 262 262 262 264 266 267 267 267 268 266 260 253 247 241 235 229 223 218 211 201 194 194 198 198 189 176 168 164 162 161 162 166 170 174 178 177 175 172 170 168 167 166 167 170 172 174 174 172 171 171 173 174 175 178 180 182 186 190 194 200 215 238 262 274 277 278 281 283 282 280
286 282 280 278 275 270 265 264 265 264 262 261 259 259 259 260 260 259 259 260 262 261 260 261 263 259 251 245 241 238 232 220 206 193 179 171 169 167 162 159 157 157 159 162 166 172 175 176 176 178 178 176 173 170 167 166 166 168 170 172 173 173 172 171 172 174 176 178 180 181 183 187 193 198 203 219 246 264 274 279 282 283 282 282 282
290 286 283 280 276 271 266 264 262 260 258 258 256 256 257 258 260 261 260 258 257 255 252 253 254 248 240 237 238 235 217 186 167 156 148 146 145 141 141 147 151 154 159 165 170 174 174 171 168 168 168 167 166 165 164 164 166 169 170 171 173 174 174 175 176 178 179 180 180 181 185 190 194 199 207 225 251 265 274 280 281 280 280 282 283
296 293 290 285 281 277 272 267 261 257 256 256 255 255 255 255 256 259 262 263 259 252 246 244 241 230 218 212 201 169 141 136 137 134 133 134 133 132 137 147 153 158 162 164 166 167 166 163 160 158 157 157 158 160 160 161 164 167 170 173 175 175 175 177 178 179 181 182 182 183 189 193 198 204 215 233 257 268 274 279 280 280 280 280 280
307 303 298 294 291 287 284 279 271 262 254 250 248 251 253 253 253 257 260 260 254 243 229 216 199 179 157 141 134 127 122 122 123 125 130 133 133 135 143 149 150 152 154 155 157 158 159 158 156 155 154 154 155 156 156 158 161 164 167 170 171 172 173 176 179 181 183 186 188 190 193 198 205 212 221 244 270 276 277 281 283 282 280 279 280
319 315 310 307 307 306 306 304 300 290 274 259 250 251 254 255 255 256 254 245 205 156 133 122 121 119 113 112 115 116 116 117 119 124 133 137 137 140 145 146 144 143 144 147 149 150 150 151 153 152 151 151 152 153 155 158 160 162 165 167 170 173 177 179 182 185 186 189 195 200 202 206 211 217 232 263 279 281 282 286 286 282 278 279 283
333 331 329 328 330 332 333 334 337 341 344 346 347 341 335 349 33 62 76 84 90 95 98 97 98 101 103 104 108 112 116 118 119 123 128 133 136 141 144 143 140 139 140 140 141 142 143 144 147 148 148 149 151 153 155 158 160 161 164 167 171 176 181 184 185 187 190 196 203 208 211 215 217 224 252 278 285 287 288 287 283 281 282 286 289
346 345 343 343 346 350 351 354 358 2 5 13 23 32 42 51 56 60 69 77 81 85 89 93 95 98 101 102 106 112 117 118 117 119 123 126 131 136 139 138 137 137 136 135 135 137 139 140 143 145 146 148 150 152 155 157 159 160 163 167 172 178 184 185 186 190 196 203 209 214 217 219 222 241 273 286 290 291 289 283 280 286 292 293 292
358 357 355 354 356 360 3 7 12 16 19 23 26 28 36 46 52 57 66 72 75 77 83 89 93 97 100 103 107 111 113 113 112 116 121 125 128 131 132 133 134 134 133 133 134 136 138 140 143 144 146 148 151 153 155 156 157 159 164 168 174 180 183 184 189 198 204 208 215 218 216 219 239 269 284 288 288 286 282 279 284 294 298 296 294
7 8 8 6 7 10 13 14 16 19 23 29 32 34 37 42 47 54 62 66 70 75 82 88 92 96 100 103 106 108 111 112 113 117 122 127 130 131 131 132 132 132 131 132 134 137 139 141 143 145 147 149 150 151 152 154 157 161 167 171 174 179 185 188 194 202 207 210 214 216 216 235 265 277 281 284 285 284 281 283 290 299 302 299 296